[Date Prev][Date Next][Thread Prev][Thread Next] - [Date Index][Thread Index][Author Index]
2 Line ISS Keps 4-27
- Subject: [sarex] 2 Line ISS Keps 4-27
- From: "Dave Larsen PhD" <doc@xxxxxxxxxxx>
- Date: Tue, 27 Apr 2004 02:32:57 -0700
ISS
1 25544U 98067A 04118.19365170 .00026969 00000-0 23367-3 0 6584
2 25544 51.6279 225.6630 0011234 72.9255 5.5404 15.68867781310310
----
Via the sarex mailing list at AMSAT.ORG courtesy of AMSAT-NA.
To unsubscribe, send "unsubscribe sarex" to Majordomo@amsat.org
AMSAT Home